Regional Weather Roundup
Issued by NWS

Home | Current Version | Previous Version | Graphics & Text | Print | Product List | Glossary On
Versions: 1 2 3 4 5 6 7 8 9 10 11 12 13 14 15 16 17 18 19 20 21 22 23 24 25 26 27 28 29 30 31 32 33 34 35 36 37 38 39 40 41 42 43 44 45 46 47 48 49 50
000
ASUS45 KBOU 011407
RWRCO

WEATHER ROUNDUP FOR COLORADO
NATIONAL WEATHER SERVICE DENVER/BOULDER CO
800 AM MDT TUE SEP 01 2015

NOTE: "FAIR" INDICATES FEW OR NO CLOUDS BELOW 12000 FEET WITH NO
SIGNIFICANT WEATHER AND/OR OBSTRUCTIONS TO VISIBILITY.

COZ001>005-013-030-031-011500-
...NORTHWEST COLORADO...

CITY           SKY/WX    TMP DP  RH WIND       PRES   REMARKS
CRAIG          SUNNY     52  46  80 W3        30.23R
HAYDEN         NOT AVBL
MEEKER         MOSUNNY   52  47  83 CALM      30.24R
MOUNT WERNER   NOT AVBL
STEAMBOAT SPGS SUNNY     47  42  83 CALM      30.28R
WALDEN         SUNNY     41  37  87 CALM      30.34R
$$

COZ006>008-011-011500-
...WEST CENTRAL VALLEYS...

CITY           SKY/WX    TMP DP  RH WIND       PRES   REMARKS
GRAND JUNCTION MOSUNNY   62  52  69 SE10      30.14R
MONTROSE       SUNNY     59  47  64 S7        30.24R
EAGLE          MOSUNNY   46  45  93 CALM      30.34R
RIFLE          MOSUNNY   57  50  77 CALM      30.22R
DELTA          SUNNY     63  50  63 NE5       30.20R HAZE
NUCLA          SUNNY     61  45  55 SE7       30.27S
$$

COZ017>023-064>068-011500-
...SOUTHWEST COLORADO...

CITY           SKY/WX    TMP DP  RH WIND       PRES   REMARKS
DURANGO        MOSUNNY   55  44  66 CALM      30.28R
CORTEZ         SUNNY     58  48  69 CALM      30.24R
PAGOSA SPRINGS MOSUNNY   51  42  72 CALM      30.34S
TELLURIDE      SUNNY     50  43  77 CALM      30.46R
WOLF CREEK PAS PTSUNNY   43  32  65 CALM      30.64R
$$

COZ009-010-012-014-032>034-037-058>063-011500-
...CENTRAL COLORADO...

CITY           SKY/WX    TMP DP  RH WIND       PRES   REMARKS
ASPEN          MOSUNNY   51  43  74 S3        30.34R
BUENA VISTA    SUNNY     51  42  71 CALM      30.36R
COPPER MTN     MOSUNNY   46  36  66 W14       30.60R
BERTHOUD PASS  FAIR      37  28  70 NW17      30.62R
COTTONWOOD PAS SUNNY     55  37  50 NW3       30.46R
GUNNISON       MOSUNNY   45  39  81 CALM      30.41R
KREMMLING      FOG       41  39  93 CALM      30.37S VSB<1/4
LEADVILLE      SUNNY     46  39  76 CALM      30.45R
MONARCH PASS   SUNNY     41  37  87 W20       30.70R
SALIDA         SUNNY     55  42  63 CALM      30.41R
SUNLIGHT       MOSUNNY   50  43  76 CALM      30.55R
WILKERSON PASS MOSUNNY   48  34  57 NW5       30.57R
$$

COZ069>075-011500-
...SAN LUIS VALLEY/SANGRE DE CRISTO MOUNTAINS...

CITY           SKY/WX    TMP DP  RH WIND       PRES   REMARKS
ALAMOSA        CLOUDY    48  46  93 W3        30.33R
LA VETA PASS   CLOUDY    50  39  66 S7G17     30.47R
SAGUACHE       PTSUNNY   54  43  66 NW13      30.36S
$$

COZ035-036-038>040-011500-
...NORTHERN COLORADO FRONT RANGE...

CITY           SKY/WX    TMP DP  RH WIND       PRES   REMARKS
DENVER INTL AP MOSUNNY   65  50  58 SW12      30.12R
DMNS CITY PARK   N/A     65  49  56 SW9       30.12S
AURORA         MOSUNNY   64  50  59 S9        30.14R
FRONT RANGE AP NOT AVBL
ERIE MUNI ARPT SUNNY     58  54  85 CALM      30.11R
BOULDER MUN AP SUNNY     61  50  67 CALM      30.11R
CENTENNIAL     MOSUNNY   66  50  56 CALM      30.16R
BROOMFIELD     MOSUNNY   63  50  63 CALM      30.14R
FORT COLLINS   SUNNY     59  48  67 CALM      30.11R
LONGMONT       SUNNY     61  53  73 CALM      30.11S
$$

COZ041-046-047-076>085-087-088-011500-
...PIKES PEAK/PALMER DIVIDE AND SOUTHERN FOOTHILLS...

CITY           SKY/WX    TMP DP  RH WIND       PRES   REMARKS
COLO. SPRINGS  MOSUNNY   60  53  77 N3        30.19R
A. F. ACADEMY  SUNNY     58  51  76 N6        30.20S
ELLICOTT       SUNNY    N/A N/A N/A CALM      30.18R
FALCON         SUNNY     64  47  54 MISG      30.23S
FORT CARSON    SUNNY     63  52  69 N3        30.16R
LIMON          MOSUNNY   58  55  90 NW5       30.13S
MONUMENT HILL  SUNNY     61  46  59 W8        30.24R
TRINIDAD       SUNNY     64  48  56 W13       30.18R
$$

COZ042>045-048>051-090-091-011500-
...NORTHEAST COLORADO...

CITY           SKY/WX    TMP DP  RH WIND       PRES   REMARKS
GREELEY ARPT   SUNNY     61  50  67 S3        30.10R
AKRON          SUNNY     66  56  70 W9        30.07S
BURLINGTON     MOSUNNY   66  58  75 W7        30.05S
WRAY           CLOUDY    62  58  88 W6        30.02S
STERLING       SUNNY     59  55  88 SW12      30.04R
HOLYOKE        NOT AVBL
FORT MORGAN    SUNNY     58  55  91 W7        30.08S
$$

COZ086-089-092>099-011500-
...SOUTHEAST COLORADO...

CITY           SKY/WX    TMP DP  RH WIND       PRES   REMARKS
PUEBLO         SUNNY     65  54  67 CALM      30.11R
LA JUNTA       SUNNY     68  56  65 NW3       30.08R
LAMAR          SUNNY     67  61  81 W6        30.04S
SPRINGFIELD      N/A     71  56  58 CALM      30.08S
$$



USA.gov is the U.S. government's official web portal to all federal, state and local government web resources and services.